EW4071 Weather Reports


time (UTC)temp
C
wind
direction
speed
KPH
gust
KPH
rain 1hr
cm
rain 24hr
cm
rain mn
cm
humidity
%
barometer
mb
20260906203022 37 137 0.0 16.1 0.00 0.00 0.00 36 1007.9
20260906201520 38 157 4.8 14.5 0.00 0.00 0.00 35 1008.1
20260906200030 38 125 3.2 11.3 0.00 0.00 0.00 35 1008.4
20260906194515 37 144 0.0 19.3 0.00 0.00 0.00 36 1008.6
20260906193015 38 242 4.8 16.1 0.00 0.00 0.00 35 1008.9
20260906191519 37 249 1.6 11.3 0.00 0.00 0.00 36 1009.1
20260906190012 37 187 0.0 0.0 0.00 0.00 0.00 37 1009.3
20260906184509 37 211 0.0 9.7 0.00 0.00 0.00 37 1009.6
20260906183011 37 133 3.2 14.5 0.00 0.00 0.00 39 1010.0
20260906181526 37 261 0.0 9.7 0.00 0.00 0.00 39 1010.2
20260906180018 37 232 0.0 3.2 0.00 0.00 0.00 39 1010.5
20260906174505 37 120 0.0 0.0 0.00 0.00 0.00 40 1010.7
20260906173003 36 242 0.0 0.0 0.00 0.00 0.00 41 1011.0
20260906171502 36 291 0.0 0.0 0.00 0.00 0.00 42 1011.3
20260906170108 36 286 0.0 1.6 0.00 0.00 0.00 43 1011.5
20260906164555 35 295 0.0 0.0 0.00 0.00 0.00 43 1011.6
20260906163057 35 295 0.0 0.0 0.00 0.00 0.00 46 1011.7
20260906161551 35 284 0.0 0.0 0.00 0.00 0.00 46 1011.6
20260906160048 34 294 0.0 1.6 0.00 0.00 0.00 48 1011.5
20260906154545 33 303 0.0 0.0 0.00 0.00 0.00 48 1011.5
20260906153042 33 243 0.0 0.0 0.00 0.00 0.00 47 1011.7
20260906151537 33 157 0.0 0.0 0.00 0.00 0.00 50 1011.6
20260906150032 31 157 0.0 0.0 0.00 0.00 0.00 54 1011.6
20260906144528 30 153 0.0 0.0 0.00 0.00 0.00 58 1011.5
20260906143025 30 154 0.0 0.0 0.00 0.00 0.00 60 1011.6
20260906141530 28 138 0.0 0.0 0.00 0.00 0.00 66 1011.4
20260906140022 27 138 0.0 0.0 0.00 0.00 0.00 68 1011.3
20260906134526 27 134 0.0 0.0 0.00 0.00 0.00 71 1011.0
20260906133019 26 134 0.0 0.0 0.00 0.00 0.00 74 1011.0
20260906131518 26 134 0.0 0.0 0.00 0.00 0.00 77 1010.8
20260906130016 25 134 0.0 0.0 0.00 0.00 0.00 77 1010.7
20260906124514 25 134 0.0 0.0 0.00 0.00 0.00 76 1010.4
20260906123015 24 134 0.0 0.0 0.00 0.00 0.00 78 1010.1
20260906121510 23 134 0.0 0.0 0.00 0.00 0.00 78 1009.9
20260906120008 24 134 0.0 0.0 0.00 0.00 0.00 78 1009.9
20260906114513 24 134 0.0 0.0 0.00 0.00 0.00 77 1009.7
20260906113006 25 134 0.0 0.0 0.00 0.00 0.00 75 1009.4
20260906111601 25 134 0.0 0.0 0.00 0.00 0.00 74 1009.5
20260906110058 25 134 0.0 0.0 0.00 0.00 0.00 71 1009.4
20260906104603 25 134 0.0 0.0 0.00 0.00 0.00 71 1009.5
20260906103054 25 134 0.0 0.0 0.00 0.00 0.00 71 1009.4
20260906101555 26 134 0.0 0.0 0.00 0.00 0.00 69 1009.4
20260906100051 25 134 0.0 0.0 0.00 0.00 0.00 70 1009.3
20260906094602 26 134 0.0 0.0 0.00 0.00 0.00 69 1009.2
20260906093116 26 134 0.0 0.0 0.00 0.00 0.00 69 1009.2
20260906091545 26 134 0.0 0.0 0.00 0.00 0.00 68 1009.2
20260906090041 26 134 0.0 0.0 0.00 0.00 0.00 67 1009.2
20260906084538 27 134 0.0 0.0 0.00 0.00 0.00 64 1009.1
20260906083045 27 134 0.0 0.0 0.00 0.00 0.00 62 1009.0
20260906081538 27 134 0.0 0.0 0.00 0.00 0.00 62 1009.1
20260906080039 27 134 0.0 0.0 0.00 0.00 0.00 62 1009.0
20260906074534 28 134 0.0 0.0 0.00 0.00 0.00 60 1009.0
20260906073031 28 133 0.0 0.0 0.00 0.00 0.00 60 1008.9
20260906071531 28 126 0.0 0.0 0.00 0.00 0.00 61 1009.0
20260906070030 28 126 0.0 0.0 0.00 0.00 0.00 61 1008.9
20260906064528 27 126 0.0 0.0 0.00 0.00 0.00 62 1008.9
20260906063026 28 126 0.0 0.0 0.00 0.00 0.00 61 1008.9
20260906061527 28 135 0.0 0.0 0.00 0.00 0.00 60 1008.8
20260906060021 28 130 0.0 0.0 0.00 0.00 0.00 59 1008.8
20260906054520 29 135 0.0 0.0 0.00 0.00 0.00 58 1009.1
20260906053017 29 123 0.0 0.0 0.00 0.00 0.00 58 1009.1
20260906051516 30 121 0.0 0.0 0.00 0.00 0.00 57 1009.2
20260906050012 30 121 0.0 0.0 0.00 0.00 0.00 55 1009.1
20260906044512 30 129 0.0 0.0 0.00 0.00 0.00 55 1009.2
20260906043011 30 130 0.0 0.0 0.00 0.00 0.00 55 1009.0
20260906041511 30 123 0.0 0.0 0.00 0.00 0.00 54 1009.0
20260906040018 30 131 0.0 0.0 0.00 0.00 0.00 54 1009.0
20260906034510 31 128 0.0 0.0 0.00 0.00 0.00 53 1009.0
20260906033009 31 134 0.0 0.0 0.00 0.00 0.00 52 1008.9
20260906031509 31 144 0.0 0.0 0.00 0.00 0.00 52 1008.7
20260906030010 31 133 0.0 0.0 0.00 0.00 0.00 51 1008.7
20260906024524 32 133 0.0 0.0 0.00 0.00 0.00 50 1008.5
20260906023015 32 128 0.0 0.0 0.00 0.00 0.00 50 1008.3
20260906021509 32 138 0.0 0.0 0.00 0.00 0.00 51 1008.0
20260906020007 32 138 0.0 0.0 0.00 0.00 0.00 50 1007.7
20260906014509 32 138 0.0 0.0 0.00 0.00 0.00 50 1007.5
20260906013017 33 135 0.0 0.0 0.00 0.00 0.00 47 1007.4
20260906011505 33 140 0.0 0.0 0.00 0.00 0.00 47 1007.3
20260906010005 33 140 0.0 0.0 0.00 0.00 0.00 45 1007.1
20260906004505 34 140 0.0 0.0 0.00 0.00 0.00 43 1007.3
20260906003003 35 130 0.0 0.0 0.00 0.00 0.00 42 1007.4
20260906001503 35 120 0.0 0.0 0.00 0.00 0.00 40 1007.5
20260906000002 36 140 0.0 0.0 0.00 0.00 0.00 40 1007.4
20260905234503 36 129 0.0 0.0 0.00 0.00 0.00 38 1007.3
20260905233102 36 152 1.6 11.3 0.00 0.00 0.00 37 1007.2
20260905231600 37 210 0.0 0.0 0.00 0.00 0.00 36 1007.1
20260905230108 37 161 9.7 16.1 0.00 0.00 0.00 37 1007.0
20260905224613 37 132 3.2 14.5 0.00 0.00 0.00 37 1006.9
20260905223058 37 142 11.3 17.7 0.00 0.00 0.00 36 1006.9
20260905221612 37 168 6.4 16.1 0.00 0.00 0.00 36 1006.9
20260905220056 37 162 0.0 17.7 0.00 0.00 0.00 36 1007.0
20260905214557 37 165 0.0 16.1 0.00 0.00 0.00 38 1007.1
20260905213102 37 127 0.0 8.0 0.00 0.00 0.00 36 1007.2
20260905211551 37 167 0.0 14.5 0.00 0.00 0.00 38 1007.3
20260905210053 37 126 0.0 17.7 0.00 0.00 0.00 38 1007.7
20260905204548 37 152 11.3 19.3 0.00 0.00 0.00 38 1008.0